Theta_e
317 316 315 315 316 316 316 316 318 318 318 317 317 315 315 314 314 313 312 313 311 309 308 306 304 303 303 304 303 301 301 299 298 297 296 295 294 293 292 291 290 290 289 289
317 316 315 315 315 315 316 316 316 317 317 316 315 314 314 313 313 313 312 310 308 306 304 303 303 303 303 303 301 300 300 298 297 296 295 294 293 292 290 290 289 289 289 288
320 318 317 320 318 315 316 315 316 317 316 315 315 314 313 312 313 311 308 307 307 305 303 303 302 302 303 302 301 300 299 298 297 296 295 293 292 290 290 289 289 289 288 288
320 317 323 318 316 315 315 315 315 315 315 315 314 313 312 311 309 308 306 306 304 304 302 301 300 301 301 302 300 300 298 297 296 295 294 292 291 290 289 289 289 288 288 288
318 318 316 316 315 315 315 315 315 316 316 314 313 312 311 309 308 306 305 304 303 302 300 299 299 300 301 300 299 299 299 297 295 294 294 292 290 289 289 289 289 288 288 287
318 317 319 317 315 313 314 317 315 315 313 311 311 313 311 307 306 304 303 302 301 300 299 298 298 298 298 298 298 298 297 295 294 293 293 291 290 289 289 289 288 288 287 286
316 318 316 315 313 313 316 318 315 312 311 310 310 308 307 305 303 302 300 300 300 299 298 297 297 296 296 296 297 297 296 294 294 294 292 290 289 289 289 289 288 287 286 285
315 317 316 313 313 316 315 313 313 311 310 309 307 306 304 302 300 300 299 299 298 297 296 296 295 295 295 295 296 296 295 295 294 293 291 290 289 289 289 288 288 286 285 284
317 317 314 313 314 314 313 312 311 309 308 307 304 303 301 300 299 299 298 297 296 296 295 294 294 294 293 295 296 295 294 293 292 292 291 290 289 289 288 287 287 285 284 284
316 314 313 313 313 313 312 310 308 307 307 304 302 300 299 299 298 297 296 295 295 294 294 294 294 294 293 294 294 293 292 292 291 290 290 289 289 288 287 286 285 284 283 282
317 315 313 313 313 311 309 308 307 306 303 302 300 299 299 298 296 296 295 295 294 294 294 294 294 293 293 293 291 291 290 290 289 289 289 289 288 287 286 285 284 282 281 279
318 314 314 313 311 309 309 308 305 302 301 300 299 298 297 296 295 295 295 294 294 294 294 294 294 293 292 291 290 289 289 289 289 289 288 288 287 287 286 285 284 282 281 280
314 313 312 310 308 308 306 303 302 300 300 299 297 297 296 296 295 295 294 294 294 294 294 293 292 291 290 290 288 288 287 288 288 288 288 287 286 285 285 285 283 282 281 280
311 309 307 306 307 304 302 301 300 299 297 297 296 296 295 294 294 294 294 294 294 293 293 292 292 291 289 289 288 287 286 287 287 287 287 286 285 284 283 283 283 283 281 280
307 307 306 305 304 302 301 299 297 296 296 295 294 294 294 293 294 294 294 293 293 291 292 291 291 290 289 288 287 287 286 286 286 286 286 284 284 283 283 283 283 282 281 280
306 305 304 302 301 299 297 296 296 295 294 293 293 293 293 293 293 293 293 293 292 291 291 290 289 289 288 287 287 287 287 285 285 285 285 284 284 283 283 282 282 282 281 280
304 303 301 299 297 296 296 296 295 294 293 293 293 292 291 291 291 291 291 291 291 291 291 290 289 288 288 287 286 286 286 285 285 284 284 284 284 283 283 282 282 281 281 279
302 299 296 296 295 295 295 295 294 293 293 292 291 291 291 291 291 291 291 290 291 291 291 290 289 289 288 286 285 284 284 285 285 284 284 284 283 283 282 282 281 281 280 280
296 295 295 295 295 295 294 294 293 292 292 291 291 291 291 291 290 290 289 290 291 291 291 289 289 289 288 284 284 284 284 284 284 284 284 283 283 283 282 282 281 280 280 279
295 294 294 294 292 292 292 292 292 292 291 291 291 291 291 291 290 290 290 290 291 291 290 289 289 288 286 284 284 283 284 283 284 284 283 283 283 283 283 282 281 281 280 280
293 292 291 291 291 292 292 292 292 292 291 291 290 291 291 290 290 290 290 290 290 290 290 289 289 287 287 286 284 284 283 283 283 283 284 283 283 283 283 282 282 281 280 280
293 292 291 291 292 293 292 292 292 292 291 290 290 290 290 289 289 289 289 290 290 290 290 289 289 288 287 286 284 284 283 283 283 283 283 283 283 283 283 282 282 281 280 280
291 290 291 292 292 292 293 292 292 291 291 290 290 289 289 289 289 289 289 290 289 289 290 289 289 288 286 285 285 284 284 283 283 283 283 283 282 282 282 282 281 281 280 280
291 291 292 292 292 292 292 292 292 291 291 290 289 290 289 289 289 289 290 290 289 290 289 290 290 288 287 286 285 284 284 284 284 283 283 283 283 282 281 282 282 281 281 280
291 291 292 292 293 293 293 293 292 292 291 290 290 290 289 288 288 289 289 289 289 289 290 290 290 289 288 287 285 284 283 283 283 283 283 283 283 283 282 282 282 282 281 280
292 293 293 293 293 293 293 293 292 292 290 289 289 289 288 288 288 288 289 289 289 289 289 290 289 288 288 287 285 284 283 282 282 283 283 283 283 283 283 282 282 282 281 281
293 293 293 294 293 293 293 293 291 290 289 288 289 288 288 288 288 288 288 288 288 289 289 289 288 288 288 287 286 285 283 282 282 282 282 282 282 282 282 282 282 281 281 281
Wind_Speed
10 12 11 12 13 13 15 14 13 15 16 15 12 11 13 10 14 18 21 17 16 23 22 17 14 15 17 17 19 20 20 20 20 17 16 16 15 17 18 19 19 19 19 20
4 7 10 14 16 18 16 10 13 13 15 9 8 9 13 19 21 20 18 16 19 21 18 17 17 20 22 19 19 21 21 21 20 18 16 15 16 17 18 18 19 19 20 21
4 11 13 6 3 1 4 7 7 10 10 8 10 16 18 16 16 13 14 18 23 18 17 19 21 23 23 22 22 22 22 22 21 17 17 16 16 18 18 19 19 21 21 21
3 7 3 5 9 13 10 9 9 8 7 9 16 18 17 6 12 14 17 18 16 19 21 23 25 26 28 25 28 27 25 23 20 17 19 17 18 18 19 19 21 22 21 20
2 5 14 10 5 6 8 13 10 6 10 14 21 19 5 5 15 15 14 16 19 21 23 26 27 29 27 29 30 28 27 20 19 20 17 17 18 19 19 21 22 22 19 21
3 3 4 2 7 5 7 9 7 7 13 13 17 10 11 18 18 16 17 19 22 23 26 27 29 29 30 31 32 29 24 17 17 17 17 16 18 19 20 22 22 21 20 23
6 5 8 8 3 5 4 3 8 12 8 13 9 14 17 15 16 17 19 21 24 25 27 28 29 30 31 33 32 27 22 14 16 17 15 15 17 19 22 23 22 19 26 26
3 3 6 4 4 3 10 15 7 7 7 8 12 13 13 15 17 20 23 25 26 28 28 29 29 30 32 35 33 24 21 15 15 15 13 15 18 20 21 23 18 20 23 24
8 6 12 9 12 14 7 5 9 6 8 11 12 13 14 17 20 23 26 28 28 27 28 29 30 30 33 31 27 17 15 16 15 12 13 16 17 20 21 17 17 19 20 22
8 7 17 13 17 3 3 2 4 10 11 9 12 14 17 21 24 26 27 29 27 28 29 30 30 31 29 23 18 21 17 13 13 13 14 15 16 17 15 16 17 17 20 20
14 20 20 15 1 1 2 6 4 6 9 11 13 18 22 25 26 27 28 27 28 27 29 30 30 29 26 21 16 15 14 12 13 12 13 15 15 13 14 13 20 23 18 18
10 11 8 8 3 8 7 4 4 7 10 13 18 23 26 26 26 27 28 29 29 30 30 30 28 26 21 14 15 11 13 11 11 12 12 11 11 12 16 18 20 23 22 23
15 4 6 7 9 5 3 2 5 8 13 19 22 24 25 26 27 28 29 28 28 29 27 26 24 18 13 16 12 14 13 11 10 10 9 8 10 13 13 13 19 21 22 25
3 5 3 5 4 4 2 4 8 13 17 20 23 24 24 26 28 28 28 28 28 26 23 23 19 13 16 9 11 13 13 11 10 8 7 9 10 11 11 12 14 14 18 22
5 5 0 5 4 3 4 8 13 17 20 21 21 23 23 25 27 28 28 28 24 25 20 19 16 15 10 12 11 10 13 8 11 8 9 11 10 11 10 12 13 14 15 14
5 7 8 5 3 5 8 12 16 19 19 21 21 21 23 26 27 28 26 23 28 29 22 20 16 12 11 10 10 9 10 15 8 7 8 10 11 10 9 11 11 13 13 15
11 9 5 3 5 9 11 14 16 18 19 20 21 29 33 32 33 29 32 29 24 24 22 18 14 11 15 13 10 9 11 11 11 8 8 9 9 9 10 10 10 12 13 18
6 5 2 4 8 11 13 14 15 17 19 24 29 31 32 32 33 35 34 26 22 22 22 16 13 13 14 10 12 11 10 9 10 10 10 10 10 10 10 11 10 11 11 13
4 2 5 8 10 12 14 16 17 22 25 26 30 31 31 31 32 32 31 26 23 24 21 13 12 13 15 13 12 9 11 9 9 11 11 12 11 11 11 12 12 11 11 11
3 6 9 13 16 18 20 20 23 24 24 27 30 31 31 33 29 27 26 26 23 22 18 18 14 14 12 10 12 8 11 12 11 11 12 12 11 12 12 12 13 12 12 12
10 14 19 20 21 19 19 22 24 24 25 27 29 30 31 32 28 25 25 26 22 21 18 14 13 10 9 11 11 10 12 10 8 9 11 13 13 12 12 11 12 14 12 12
14 18 23 22 21 22 23 24 23 24 27 28 28 28 28 28 28 27 23 23 23 24 18 13 13 12 9 14 11 13 12 9 10 10 11 11 13 12 12 11 12 13 13 13
23 23 22 21 20 24 24 23 24 25 28 29 28 25 23 26 24 24 26 23 26 21 14 15 14 13 13 13 11 11 13 11 9 9 10 11 11 11 12 12 12 12 12 11
20 19 20 21 23 24 24 21 19 26 28 26 24 20 23 26 26 24 21 28 24 14 15 13 15 14 14 14 13 10 13 15 14 13 13 13 15 14 13 12 13 12 12 13
22 22 22 22 20 17 16 18 20 20 22 22 22 23 23 25 23 27 22 25 18 15 15 16 16 17 17 17 15 16 15 16 16 15 14 13 14 14 14 13 13 13 13 13
20 18 19 20 20 19 18 16 20 22 24 27 25 25 26 26 26 24 22 20 16 16 17 16 18 19 19 17 16 17 18 16 16 16 15 14 13 12 13 14 13 14 14 15
19 19 19 18 17 15 16 18 24 27 27 25 26 26 27 29 28 26 21 19 18 19 20 21 22 23 24 20 17 20 19 17 17 16 16 16 15 14 13 13 13 13 14 15
Wind_Direction
302 303 306 297 285 272 263 260 257 276 285 307 331 358 334 323 327 327 319 329 330 320 315 308 310 307 305 303 304 306 308 311 310 306 309 308 307 310 311 311 312 312 311 309
281 300 317 304 287 274 263 275 282 288 296 3 339 321 327 344 324 325 332 320 319 315 312 310 309 306 302 299 303 308 307 307 306 301 301 304 306 310 311 311 312 313 313 311
280 338 321 282 267 322 283 277 256 268 289 340 323 1 344 334 326 332 319 316 314 311 311 309 309 309 305 302 303 302 299 301 302 295 295 300 306 310 311 312 313 313 312 311
299 312 309 40 299 295 276 286 280 288 350 12 351 331 328 334 335 322 320 316 313 313 314 313 311 310 307 305 304 302 298 294 293 293 292 297 305 308 310 311 312 312 311 312
269 295 289 298 53 6 336 301 322 358 7 338 329 321 325 9 336 319 312 311 313 314 314 314 315 313 311 308 301 302 301 309 307 295 288 297 305 310 310 312 312 312 310 311
166 271 271 45 26 339 299 266 52 356 341 333 326 320 325 332 327 325 318 313 312 313 313 315 316 315 311 308 305 300 296 300 298 290 291 297 304 309 309 312 312 311 304 311
227 246 267 302 0 299 258 0 333 337 324 310 318 317 312 316 311 312 313 313 317 315 317 316 316 316 312 310 307 303 293 293 293 287 289 300 302 308 311 313 316 311 314 314
210 253 272 168 219 262 330 316 332 311 283 294 310 310 304 311 312 314 317 318 318 317 316 317 319 319 316 312 315 311 299 302 299 298 297 299 303 309 314 315 315 314 315 320
192 248 298 249 259 274 272 322 316 269 293 295 311 309 310 311 316 317 317 317 317 317 317 319 321 321 318 319 311 321 313 308 302 298 296 300 307 311 316 315 317 316 320 319
277 260 295 302 307 74 72 307 255 284 278 297 303 310 311 317 317 317 318 318 319 319 319 319 321 321 319 317 317 318 316 310 305 304 301 305 309 312 313 315 314 321 319 319
266 287 299 283 145 106 270 281 270 291 297 298 306 312 316 317 316 317 316 317 317 315 315 318 319 320 318 312 312 311 313 311 306 303 304 306 310 313 311 308 310 323 324 324
263 298 272 301 329 299 278 246 285 301 304 307 313 314 314 313 315 317 318 316 317 316 316 316 317 316 313 309 315 312 310 316 305 306 305 310 311 314 317 315 321 329 330 331
291 282 233 244 292 253 281 279 299 307 312 313 313 313 312 311 312 315 315 315 316 315 313 312 315 315 310 308 311 313 312 312 311 310 306 306 309 313 318 320 328 328 329 331
244 176 299 219 202 215 266 296 308 309 310 313 313 313 314 313 313 314 315 315 313 309 311 314 310 301 307 301 300 312 321 317 306 299 287 294 298 305 319 321 328 326 326 327
146 158 200 201 198 241 290 313 314 312 313 313 315 315 316 316 316 314 313 310 306 313 312 310 298 292 291 293 309 310 312 297 283 281 290 309 316 315 318 320 323 324 328 327
196 161 166 195 256 308 318 314 311 312 315 315 316 318 317 315 313 311 312 310 304 310 313 308 297 290 285 296 298 298 298 302 299 281 297 306 307 307 310 318 323 322 326 323
169 176 199 252 301 308 307 307 309 311 315 316 316 317 319 319 319 319 315 315 307 304 313 303 292 284 284 300 288 294 289 277 283 285 284 292 300 307 303 312 318 321 320 315
175 163 201 283 297 301 302 306 310 309 311 313 317 319 321 322 321 319 323 320 309 304 313 296 281 285 296 287 268 281 289 272 272 275 284 294 296 298 301 308 314 315 316 320
164 231 282 294 299 299 301 305 307 307 311 316 318 318 318 318 320 322 327 318 308 305 309 294 281 286 298 283 281 288 286 280 272 275 282 293 303 300 297 301 305 310 311 314
236 283 294 301 300 300 300 305 309 308 313 315 315 312 314 320 320 320 321 316 309 305 298 276 279 291 305 294 290 277 276 287 278 274 280 292 299 299 296 299 305 310 310 307
293 302 306 307 304 299 298 305 305 306 313 312 311 309 312 317 319 321 321 316 311 307 290 259 265 279 285 288 283 285 291 290 276 276 279 287 292 301 298 295 302 305 307 304
299 300 302 304 299 297 304 306 307 306 309 312 311 309 315 318 324 317 312 313 315 311 282 256 264 268 260 274 276 260 281 276 269 271 276 283 287 293 297 293 296 298 300 304
299 297 297 297 297 301 305 306 306 305 309 310 308 311 316 320 322 322 314 318 313 304 261 254 259 264 271 277 291 279 280 280 270 271 274 280 286 291 296 298 295 296 298 298
297 298 297 298 300 301 303 309 301 307 311 312 311 307 309 323 317 312 311 311 308 283 254 259 264 264 271 277 293 285 273 271 272 271 273 275 284 291 294 297 299 302 302 301
296 297 295 300 300 298 298 299 300 308 307 309 306 304 312 318 315 313 309 310 301 273 264 263 259 261 270 274 283 283 283 269 265 264 263 264 264 272 278 287 296 299 301 302
295 289 288 286 282 283 288 298 302 302 304 309 310 310 312 319 321 316 312 309 293 279 272 267 260 262 269 270 284 277 281 273 267 267 269 269 269 269 271 280 288 291 298 300
292 290 287 285 281 280 284 292 299 308 312 310 305 312 313 314 319 319 307 303 295 282 273 269 269 271 271 266 272 274 282 270 265 265 264 266 265 267 273 278 284 288 292 296